EW8832 Weather Reports


Display with metric or nautical units.
time (UTC)temp
F
wind
direction
speed
MPH
gust
MPH
rain 1hr
in
rain 24hr
in
rain mn
in
humidity
%
barometer
mb
20260510200003 71 55 9.0 14.0 0.00 0.00 0.00 67 1015.3
20260510194502 70 24 7.0 12.0 0.00 0.00 0.00 69 1015.5
20260510193001 71 44 2.0 10.0 0.00 0.00 0.00 72 1015.6
20260510191504 71 11 4.0 12.0 0.00 0.00 0.00 71 1015.5
20260510190001 71 28 5.0 9.0 0.00 0.00 0.00 69 1015.5
20260510184608 71 360 4.0 9.0 0.00 0.00 0.00 71 1015.6
20260510184500 71 5 5.0 9.0 0.00 0.00 0.00 71 1015.6
20260510183101 71 20 4.0 11.0 0.00 0.00 0.00 71 1015.8
20260510181559 71 348 3.0 8.0 0.00 0.00 0.00 72 1015.6
20260510180058 71 322 4.0 9.0 0.00 0.00 0.00 71 1015.7
20260510174559 71 339 4.0 12.0 0.00 0.00 0.00 69 1015.4
20260510173054 72 30 2.0 6.0 0.00 0.00 0.00 67 1015.1
20260510171606 72 319 5.0 8.0 0.00 0.00 0.00 69 1015.2
20260510170054 72 279 1.0 8.0 0.00 0.00 0.00 69 1015.1
20260510164552 72 316 4.0 9.0 0.00 0.00 0.00 67 1014.9
20260510163049 71 337 2.0 6.0 0.00 0.00 0.00 69 1014.7
20260510161545 70 48 2.0 8.0 0.00 0.00 0.00 71 1014.4
20260510160043 69 42 4.0 9.0 0.00 0.00 0.00 73 1014.0
20260510154542 69 19 3.0 11.0 0.00 0.00 0.00 74 1013.8
20260510153039 69 15 4.0 8.0 0.00 0.00 0.00 77 1013.9
20260510151539 68 61 5.0 9.0 0.00 0.00 0.00 79 1013.6
20260510150040 68 14 4.0 9.0 0.00 0.00 0.00 79 1013.7
20260510144549 67 53 1.0 6.0 0.00 0.00 0.00 80 1013.6
20260510143033 67 32 2.0 6.0 0.00 0.00 0.00 80 1013.6
20260510141534 67 31 2.0 6.0 0.00 0.00 0.00 79 1013.9
20260510140031 66 38 3.0 8.0 0.00 0.00 0.00 80 1014.0
20260510134529 65 9 4.0 9.0 0.00 0.00 0.00 82 1014.2
20260510133025 64 9 1.0 5.0 0.00 0.00 0.00 85 1014.0
20260510131521 63 20 2.0 5.0 0.00 0.00 0.00 84 1013.4
20260510130019 63 34 3.0 5.0 0.00 0.00 0.00 85 1013.0
20260510124517 62 24 1.0 4.0 0.00 0.00 0.00 86 1012.8
20260510123015 62 33 1.0 3.0 0.00 0.00 0.00 87 1012.7
20260510121514 61 35 0.0 1.0 0.00 0.00 0.00 86 1012.3
20260510120015 61 45 3.0 6.0 0.00 0.00 0.00 86 1011.9
20260510114512 61 65 2.0 5.0 0.00 0.00 0.00 86 1011.8
20260510113009 61 74 2.0 4.0 0.00 0.00 0.00 86 1011.7
20260510111508 61 130 2.0 3.0 0.00 0.00 0.00 86 1011.5
20260510110012 62 209 0.0 2.0 0.00 0.00 0.00 83 1011.5
20260510104507 62 209 0.0 0.0 0.00 0.00 0.00 83 1011.4
20260510103007 63 209 1.0 6.0 0.00 0.00 0.00 83 1011.4
20260510101506 63 246 1.0 3.0 0.00 0.00 0.00 83 1011.4
20260510100007 63 251 0.0 3.0 0.00 0.00 0.00 83 1011.3
20260510094515 62 257 1.0 6.0 0.00 0.00 0.00 85 1011.4
20260510093003 61 203 0.0 3.0 0.00 0.00 0.00 85 1011.0
20260510091505 61 148 1.0 5.0 0.00 0.00 0.00 84 1010.3
20260510090104 62 167 3.0 6.0 0.00 0.00 0.00 83 1010.1
20260510084558 62 204 2.0 7.0 0.00 0.00 0.00 82 1010.5
20260510083056 60 213 2.0 5.0 0.00 0.00 0.00 82 1010.5
20260510081623 60 176 1.0 3.0 0.00 0.00 0.00 81 1010.5
20260510080057 60 176 0.0 3.0 0.00 0.00 0.00 82 1010.8
20260510074602 60 176 0.0 4.0 0.00 0.00 0.00 81 1010.6
20260510073055 60 179 0.0 3.0 0.00 0.00 0.00 81 1010.6
20260510071555 60 179 0.0 2.0 0.00 0.00 0.00 81 1010.4
20260510070056 60 180 0.0 0.0 0.00 0.00 0.00 82 1010.8
20260510064550 61 180 0.0 0.0 0.00 0.00 0.00 79 1011.0
20260510063047 61 180 0.0 0.0 0.00 0.00 0.00 76 1011.3
20260510061545 62 179 0.0 0.0 0.00 0.00 0.00 76 1011.4
20260510060051 61 180 0.0 0.0 0.00 0.00 0.00 77 1011.5
20260510054541 61 180 0.0 0.0 0.00 0.00 0.00 78 1011.3
20260510053041 60 180 0.0 0.0 0.00 0.00 0.00 77 1011.2
20260510051552 60 180 0.0 0.0 0.00 0.00 0.00 78 1010.9
20260510050038 60 180 0.0 0.0 0.00 0.00 0.00 77 1010.9
20260510044538 62 180 0.0 2.0 0.00 0.00 0.00 76 1010.7
20260510043042 62 180 0.0 0.0 0.00 0.00 0.00 70 1010.6
20260510041534 63 180 0.0 0.0 0.00 0.00 0.00 68 1010.4
20260510040033 63 180 0.0 0.0 0.00 0.00 0.00 67 1010.5
20260510034532 63 180 0.0 0.0 0.00 0.00 0.00 65 1010.3
20260510033030 64 180 0.0 0.0 0.00 0.00 0.00 64 1010.0
20260510031547 64 180 0.0 0.0 0.00 0.00 0.00 66 1009.7
20260510030029 65 180 0.0 0.0 0.00 0.00 0.00 59 1009.6
20260510024535 65 180 0.0 0.0 0.00 0.00 0.00 58 1009.3
20260510023042 66 180 0.0 0.0 0.00 0.02 0.00 56 1009.1
20260510021530 66 180 0.0 0.0 0.00 0.02 0.00 57 1008.8
20260510020029 67 180 0.0 3.0 0.00 0.02 0.00 56 1008.5
20260510014528 68 180 0.0 3.0 0.00 0.02 0.00 58 1008.2
20260510013028 69 98 0.0 0.0 0.00 0.10 0.00 56 1007.8
20260510011527 72 98 0.0 2.0 0.00 0.10 0.00 52 1007.7
20260510010029 74 98 1.0 3.0 0.00 0.10 0.00 44 1007.5
20260510004526 75 92 1.0 4.0 0.00 0.10 0.00 39 1007.3
20260510003026 75 95 2.0 4.0 0.00 0.10 0.00 40 1007.3
20260510001526 76 97 2.0 6.0 0.00 0.10 0.00 41 1007.3
20260510000026 77 93 2.0 6.0 0.00 0.10 0.00 40 1007.4
20260509234524 77 97 5.0 7.0 0.00 0.10 0.00 37 1007.6
20260509233022 78 121 2.0 5.0 0.00 0.10 0.00 35 1007.7
20260509231522 78 136 4.0 5.0 0.00 0.10 0.00 38 1007.9
20260509230021 78 128 4.0 8.0 0.00 0.10 0.00 36 1007.8
20260509224520 78 94 2.0 9.0 0.00 0.10 0.00 35 1007.8
20260509223025 80 121 0.0 4.0 0.00 0.10 0.00 34 1008.0
20260509221524 80 178 2.0 4.0 0.00 0.10 0.00 34 1007.9
20260509220018 80 188 1.0 5.0 0.00 0.10 0.00 32 1007.9
20260509214517 79 196 2.0 7.0 0.00 0.10 0.00 34 1007.9
20260509213017 80 167 3.0 5.0 0.00 0.10 0.00 35 1007.9
20260509211534 79 146 2.0 6.0 0.00 0.10 0.00 39 1008.1
20260509210017 79 157 0.0 5.0 0.00 0.10 0.00 40 1008.3
20260509204516 79 140 6.0 9.0 0.00 0.10 0.00 38 1008.5
20260509203033 80 315 1.0 4.0 0.00 0.10 0.00 36 1008.6
20260509201520 80 333 2.0 6.0 0.00 0.10 0.00 36 1008.7